29.03.2024;00:06;78,507;
28.03.2024;23:51;78,506;
28.03.2024;23:36;78,507;
28.03.2024;23:21;78,507;
28.03.2024;23:06;78,508;
28.03.2024;22:51;78,508;
28.03.2024;22:36;78,507;
28.03.2024;22:21;78,506;
28.03.2024;22:06;78,506;
28.03.2024;21:51;78,506;
28.03.2024;21:36;78,506;
28.03.2024;21:21;78,506;
28.03.2024;21:06;78,505;
28.03.2024;20:51;78,505;
28.03.2024;20:36;78,504;
28.03.2024;20:21;78,504;
28.03.2024;20:06;78,504;
28.03.2024;19:51;78,504;
28.03.2024;19:36;78,503;
28.03.2024;19:21;78,502;
28.03.2024;19:06;78,503;
28.03.2024;18:51;78,502;
28.03.2024;18:36;78,502;
28.03.2024;18:21;78,502;
28.03.2024;18:06;78,502;
28.03.2024;17:51;78,502;
28.03.2024;17:36;78,502;
28.03.2024;17:21;78,503;
28.03.2024;17:06;78,503;
28.03.2024;16:51;78,504;
28.03.2024;16:36;78,504;
28.03.2024;16:21;78,505;
28.03.2024;16:06;78,505;
28.03.2024;15:51;78,505;
28.03.2024;15:36;78,506;
28.03.2024;15:21;78,506;
28.03.2024;15:06;78,506;
28.03.2024;14:51;78,506;
28.03.2024;14:36;78,506;
28.03.2024;14:21;78,506;
28.03.2024;14:06;78,507;
28.03.2024;13:51;78,507;
28.03.2024;13:36;78,507;
28.03.2024;13:21;78,506;
28.03.2024;13:06;78,506;
28.03.2024;12:51;78,506;
28.03.2024;12:36;78,506;
28.03.2024;12:21;78,506;
28.03.2024;12:06;78,506;
28.03.2024;11:51;78,505;
28.03.2024;11:36;78,505;
28.03.2024;11:21;78,505;
28.03.2024;11:06;78,505;
28.03.2024;10:51;78,505;
28.03.2024;10:36;78,505;
28.03.2024;10:21;78,505;
28.03.2024;10:06;78,505;
28.03.2024;09:51;78,505;
28.03.2024;09:36;78,505;
28.03.2024;09:21;78,505;
28.03.2024;09:06;78,505;
28.03.2024;08:51;78,505;
28.03.2024;08:36;78,505;
28.03.2024;08:21;78,505;
28.03.2024;08:06;78,504;
28.03.2024;07:51;78,505;
28.03.2024;07:36;78,503;
28.03.2024;07:21;78,505;
28.03.2024;07:06;78,505;
28.03.2024;06:51;78,505;
28.03.2024;06:36;78,505;
28.03.2024;06:21;78,505;
28.03.2024;06:06;78,506;
28.03.2024;05:51;78,506;
28.03.2024;05:36;78,507;
28.03.2024;05:21;78,508;
28.03.2024;05:06;78,509;
28.03.2024;04:51;78,507;
28.03.2024;04:36;78,510;
28.03.2024;04:21;78,509;
28.03.2024;04:06;78,509;
28.03.2024;03:51;78,509;
28.03.2024;03:36;78,510;
28.03.2024;03:21;78,509;
28.03.2024;03:06;78,509;
28.03.2024;02:51;78,510;
28.03.2024;02:36;78,510;
28.03.2024;02:21;78,510;
28.03.2024;02:06;78,510;
28.03.2024;01:51;78,510;
28.03.2024;01:36;78,510;
28.03.2024;01:21;78,511;
28.03.2024;01:06;78,510;
28.03.2024;00:51;78,510;
28.03.2024;00:36;78,510;
28.03.2024;00:21;78,510;
28.03.2024;00:06;78,510;
27.03.2024;23:51;78,510;
27.03.2024;23:36;78,510;
27.03.2024;23:21;78,510;
27.03.2024;23:06;78,509;
27.03.2024;22:51;78,509;
27.03.2024;22:36;78,510;
27.03.2024;22:21;78,508;
27.03.2024;22:06;78,508;
27.03.2024;21:51;78,509;
27.03.2024;21:36;78,508;
27.03.2024;21:21;78,509;
27.03.2024;21:06;78,508;
27.03.2024;20:51;78,509;
27.03.2024;20:36;78,508;
27.03.2024;20:21;78,509;
27.03.2024;20:06;78,509;
27.03.2024;19:51;78,508;
27.03.2024;19:36;78,509;
27.03.2024;19:21;78,508;
27.03.2024;19:06;78,509;
27.03.2024;18:51;78,509;
27.03.2024;18:36;78,509;
27.03.2024;18:21;78,509;
27.03.2024;18:06;78,509;
27.03.2024;17:51;78,510;
27.03.2024;17:36;78,509;
27.03.2024;17:21;78,510;
27.03.2024;17:06;78,509;
27.03.2024;16:51;78,509;
27.03.2024;16:36;78,509;
27.03.2024;16:21;78,508;
27.03.2024;16:06;78,511;
27.03.2024;15:51;78,510;
27.03.2024;15:36;78,511;
27.03.2024;15:21;78,510;
27.03.2024;15:06;78,511;
27.03.2024;14:51;78,511;
27.03.2024;14:36;78,511;
27.03.2024;14:21;78,512;
27.03.2024;14:06;78,511;
27.03.2024;13:51;78,512;
27.03.2024;13:36;78,511;
27.03.2024;13:21;78,511;
27.03.2024;13:06;78,511;
27.03.2024;12:51;78,510;
27.03.2024;12:36;78,511;
27.03.2024;12:21;78,510;
27.03.2024;12:06;78,509;
27.03.2024;11:51;78,509;
27.03.2024;11:36;78,508;
27.03.2024;11:21;78,508;
27.03.2024;11:06;78,507;
27.03.2024;10:51;78,506;
27.03.2024;10:36;78,508;
27.03.2024;10:21;78,506;
27.03.2024;10:06;78,506;
27.03.2024;09:51;78,505;
27.03.2024;09:36;78,505;
27.03.2024;09:21;78,505;
27.03.2024;09:06;78,505;
27.03.2024;08:51;78,505;
27.03.2024;08:36;78,505;
27.03.2024;08:21;78,505;
27.03.2024;08:06;78,505;
27.03.2024;07:51;78,506;
27.03.2024;07:36;78,505;
27.03.2024;07:21;78,506;
27.03.2024;07:06;78,506;
27.03.2024;06:51;78,506;
27.03.2024;06:36;78,506;
27.03.2024;06:21;78,506;
27.03.2024;06:06;78,506;
27.03.2024;05:51;78,507;
27.03.2024;05:36;78,507;
27.03.2024;05:21;78,508;
27.03.2024;05:06;78,507;
27.03.2024;04:51;78,507;
27.03.2024;04:36;78,508;
27.03.2024;04:21;78,507;
27.03.2024;04:06;78,509;
27.03.2024;03:51;78,509;
27.03.2024;03:36;78,509;
27.03.2024;03:21;78,510;
27.03.2024;03:06;78,510;
27.03.2024;02:51;78,510;
27.03.2024;02:36;78,510;
27.03.2024;02:21;78,510;
27.03.2024;02:06;78,510;
27.03.2024;01:51;78,510;
27.03.2024;01:36;78,509;
27.03.2024;01:21;78,509;
27.03.2024;01:06;78,510;
27.03.2024;00:51;78,510;
27.03.2024;00:36;78,510;
27.03.2024;00:21;78,509;
27.03.2024;00:06;78,510;
26.03.2024;23:51;78,509;
26.03.2024;23:36;78,509;
26.03.2024;23:21;78,509;
26.03.2024;23:06;78,508;
26.03.2024;22:51;78,509;
26.03.2024;22:36;78,508;
26.03.2024;22:21;78,509;
26.03.2024;22:06;78,508;
26.03.2024;21:51;78,509;
26.03.2024;21:36;78,508;
26.03.2024;21:21;78,510;
26.03.2024;21:06;78,508;
26.03.2024;20:51;78,509;
26.03.2024;20:36;78,509;
26.03.2024;20:21;78,508;
26.03.2024;20:06;78,508;
26.03.2024;19:51;78,508;
26.03.2024;19:36;78,509;
26.03.2024;19:21;78,508;
26.03.2024;19:06;78,509;
26.03.2024;18:51;78,508;
26.03.2024;18:36;78,508;
26.03.2024;18:21;78,508;
26.03.2024;18:06;78,509;
26.03.2024;17:51;78,509;
26.03.2024;17:36;78,509;
26.03.2024;17:21;78,510;
26.03.2024;17:06;78,510;
26.03.2024;16:51;78,510;
26.03.2024;16:36;78,510;
26.03.2024;16:21;78,510;
26.03.2024;16:06;78,511;
26.03.2024;15:51;78,511;
26.03.2024;15:36;78,511;
26.03.2024;15:21;78,512;
26.03.2024;15:06;78,511;
26.03.2024;14:51;78,512;
26.03.2024;14:36;78,512;
26.03.2024;14:21;78,512;
26.03.2024;14:06;78,512;
26.03.2024;13:51;78,512;
26.03.2024;13:36;78,512;
26.03.2024;13:21;78,512;
26.03.2024;13:06;78,512;
26.03.2024;12:51;78,512;
26.03.2024;12:36;78,511;
26.03.2024;12:21;78,511;
26.03.2024;12:06;78,511;
26.03.2024;11:51;78,511;
26.03.2024;11:36;78,510;
26.03.2024;11:21;78,511;
26.03.2024;11:06;78,510;
26.03.2024;10:51;78,510;
26.03.2024;10:36;78,510;
26.03.2024;10:21;78,509;
26.03.2024;10:06;78,510;
26.03.2024;09:51;78,508;
26.03.2024;09:36;78,509;
26.03.2024;09:21;78,509;
26.03.2024;09:06;78,509;
26.03.2024;08:51;78,508;
26.03.2024;08:36;78,508;
26.03.2024;08:21;78,508;
26.03.2024;08:06;78,507;
26.03.2024;07:51;78,507;
26.03.2024;07:36;78,507;
26.03.2024;07:21;78,507;
26.03.2024;07:06;78,506;
26.03.2024;06:51;78,507;
26.03.2024;06:36;78,506;
26.03.2024;06:21;78,507;
26.03.2024;06:06;78,507;
26.03.2024;05:51;78,507;
26.03.2024;05:36;78,508;
26.03.2024;05:21;78,508;
26.03.2024;05:06;78,510;
26.03.2024;04:51;78,509;
26.03.2024;04:36;78,510;
26.03.2024;04:21;78,511;
26.03.2024;04:06;78,511;
26.03.2024;03:51;78,512;
26.03.2024;03:36;78,513;
26.03.2024;03:21;78,513;
26.03.2024;03:06;78,513;
26.03.2024;02:51;78,514;
26.03.2024;02:36;78,513;
26.03.2024;02:21;78,514;
26.03.2024;02:06;78,514;
26.03.2024;01:51;78,513;
26.03.2024;01:36;78,513;
26.03.2024;01:21;78,513;
26.03.2024;01:06;78,513;
26.03.2024;00:51;78,513;
26.03.2024;00:36;78,513;
26.03.2024;00:21;78,513;
26.03.2024;00:06;78,512;
25.03.2024;23:51;78,512;
25.03.2024;23:36;78,513;
25.03.2024;23:21;78,511;
25.03.2024;23:06;78,512;
25.03.2024;22:51;78,512;
25.03.2024;22:36;78,511;
25.03.2024;22:21;78,511;
25.03.2024;22:06;78,511;
25.03.2024;21:51;78,511;
25.03.2024;21:36;78,511;
25.03.2024;21:21;78,510;
25.03.2024;21:06;78,510;
25.03.2024;20:51;78,510;
25.03.2024;20:36;78,510;
25.03.2024;20:21;78,510;
25.03.2024;20:06;78,510;
25.03.2024;19:51;78,510;
25.03.2024;19:36;78,510;
25.03.2024;19:21;78,510;
25.03.2024;19:06;78,510;
25.03.2024;18:51;78,510;
25.03.2024;18:36;78,510;
25.03.2024;18:21;78,510;
25.03.2024;18:06;78,510;
25.03.2024;17:51;78,510;
25.03.2024;17:36;78,510;
25.03.2024;17:21;78,511;
25.03.2024;17:06;78,511;
25.03.2024;16:51;78,511;
25.03.2024;16:36;78,512;
25.03.2024;16:21;78,512;
25.03.2024;16:06;78,512;
25.03.2024;15:51;78,512;
25.03.2024;15:36;78,513;
25.03.2024;15:21;78,513;
25.03.2024;15:06;78,513;
25.03.2024;14:51;78,513;
25.03.2024;14:36;78,513;
25.03.2024;14:21;78,513;
25.03.2024;14:06;78,513;
25.03.2024;13:51;78,512;
25.03.2024;13:36;78,512;
25.03.2024;13:21;78,512;
25.03.2024;13:06;78,512;
25.03.2024;12:51;78,512;
25.03.2024;12:36;78,512;
25.03.2024;12:21;78,512;
25.03.2024;12:06;78,512;
25.03.2024;11:51;78,512;
25.03.2024;11:36;78,512;
25.03.2024;11:21;78,512;
25.03.2024;11:06;78,512;
25.03.2024;10:51;78,512;
25.03.2024;10:36;78,512;
25.03.2024;10:21;78,512;
25.03.2024;10:06;78,512;
25.03.2024;09:51;78,513;
25.03.2024;09:36;78,512;
25.03.2024;09:21;78,512;
25.03.2024;09:06;78,512;
25.03.2024;08:51;78,512;
25.03.2024;08:36;78,512;
25.03.2024;08:21;78,512;
25.03.2024;08:06;78,513;
25.03.2024;07:51;78,513;
25.03.2024;07:36;78,514;
25.03.2024;07:21;78,513;
25.03.2024;07:06;78,514;
25.03.2024;06:51;78,514;
25.03.2024;06:36;78,514;
25.03.2024;06:21;78,515;
25.03.2024;06:06;78,515;
25.03.2024;05:51;78,515;
25.03.2024;05:36;78,515;
25.03.2024;05:21;78,516;
25.03.2024;05:06;78,517;
25.03.2024;04:51;78,517;
25.03.2024;04:36;78,517;
25.03.2024;04:21;78,518;
25.03.2024;04:06;78,519;
25.03.2024;03:51;78,519;
25.03.2024;03:36;78,520;
25.03.2024;03:21;78,520;
25.03.2024;03:06;78,520;
25.03.2024;02:51;78,520;
25.03.2024;02:36;78,521;
25.03.2024;02:21;78,521;
25.03.2024;02:06;78,521;
25.03.2024;01:51;78,522;
25.03.2024;01:36;78,521;
25.03.2024;01:21;78,521;
25.03.2024;01:06;78,521;
25.03.2024;00:51;78,521;
25.03.2024;00:36;78,522;
25.03.2024;00:21;78,520;
25.03.2024;00:06;78,521;
24.03.2024;23:51;78,520;
24.03.2024;23:36;78,520;
24.03.2024;23:21;78,520;
24.03.2024;23:06;78,520;
24.03.2024;22:51;78,520;
24.03.2024;22:36;78,519;
24.03.2024;22:21;78,519;
24.03.2024;22:06;78,518;
24.03.2024;21:51;78,519;
24.03.2024;21:36;78,518;
24.03.2024;21:21;78,518;
24.03.2024;21:06;78,518;
24.03.2024;20:51;78,518;
24.03.2024;20:36;78,518;
24.03.2024;20:21;78,517;
24.03.2024;20:06;78,517;
24.03.2024;19:51;78,517;
24.03.2024;19:36;78,517;
24.03.2024;19:21;78,517;
24.03.2024;19:06;78,517;
24.03.2024;18:51;78,516;
24.03.2024;18:36;78,516;
24.03.2024;18:21;78,515;
24.03.2024;18:06;78,516;
24.03.2024;17:51;78,515;
24.03.2024;17:36;78,515;
24.03.2024;17:21;78,516;
24.03.2024;17:06;78,515;
24.03.2024;16:51;78,516;
24.03.2024;16:36;78,516;
24.03.2024;16:21;78,515;
24.03.2024;16:06;78,515;
24.03.2024;15:51;78,515;
24.03.2024;15:36;78,515;
24.03.2024;15:21;78,515;
24.03.2024;15:06;78,516;
24.03.2024;14:51;78,515;
24.03.2024;14:36;78,514;
24.03.2024;14:21;78,514;
24.03.2024;14:06;78,514;
24.03.2024;13:51;78,514;
24.03.2024;13:36;78,514;
24.03.2024;13:21;78,515;
24.03.2024;13:06;78,514;
24.03.2024;12:51;78,514;
24.03.2024;12:36;78,514;
24.03.2024;12:21;78,514;
24.03.2024;12:06;78,514;
24.03.2024;11:51;78,514;
24.03.2024;11:36;78,514;
24.03.2024;11:21;78,514;
24.03.2024;11:06;78,513;
24.03.2024;10:51;78,513;
24.03.2024;10:36;78,512;
24.03.2024;10:21;78,512;
24.03.2024;10:06;78,512;
24.03.2024;09:51;78,512;
24.03.2024;09:36;78,512;
24.03.2024;09:21;78,510;
24.03.2024;09:06;78,511;
24.03.2024;08:51;78,510;
24.03.2024;08:36;78,511;
24.03.2024;08:21;78,511;
24.03.2024;08:06;78,510;
24.03.2024;07:51;78,510;
24.03.2024;07:36;78,509;
24.03.2024;07:21;78,510;
24.03.2024;07:06;78,510;
24.03.2024;06:51;78,510;
24.03.2024;06:36;78,510;
24.03.2024;06:21;78,510;
24.03.2024;06:06;78,509;
24.03.2024;05:51;78,510;
24.03.2024;05:36;78,511;
24.03.2024;05:21;78,511;
24.03.2024;05:06;78,512;
24.03.2024;04:51;78,513;
24.03.2024;04:36;78,514;
24.03.2024;04:21;78,515;
24.03.2024;04:06;78,515;
24.03.2024;03:51;78,517;
24.03.2024;03:36;78,517;
24.03.2024;03:21;78,516;
24.03.2024;03:06;78,517;
24.03.2024;02:51;78,517;
24.03.2024;02:36;78,517;
24.03.2024;02:21;78,517;
24.03.2024;02:06;78,517;
24.03.2024;01:51;78,517;
24.03.2024;01:36;78,517;
24.03.2024;01:21;78,517;
24.03.2024;01:06;78,516;
24.03.2024;00:51;78,517;
24.03.2024;00:36;78,517;
24.03.2024;00:21;78,517;
24.03.2024;00:06;78,516;
23.03.2024;23:51;78,516;
23.03.2024;23:36;78,516;
23.03.2024;23:21;78,515;
23.03.2024;23:06;78,515;
23.03.2024;22:51;78,516;
23.03.2024;22:36;78,515;
23.03.2024;22:21;78,514;
23.03.2024;22:06;78,514;
23.03.2024;21:51;78,515;
23.03.2024;21:36;78,514;
23.03.2024;21:21;78,514;
23.03.2024;21:06;78,515;
23.03.2024;20:51;78,514;
23.03.2024;20:36;78,515;
23.03.2024;20:21;78,514;
23.03.2024;20:06;78,515;
23.03.2024;19:51;78,515;
23.03.2024;19:36;78,515;
23.03.2024;19:21;78,515;
23.03.2024;19:06;78,514;
23.03.2024;18:51;78,514;
23.03.2024;18:36;78,514;
23.03.2024;18:21;78,514;
23.03.2024;18:06;78,514;
23.03.2024;17:51;78,514;
23.03.2024;17:36;78,514;
23.03.2024;17:21;78,514;
23.03.2024;17:06;78,512;
23.03.2024;16:51;78,513;
23.03.2024;16:36;78,513;
23.03.2024;16:21;78,513;
23.03.2024;16:06;78,513;
23.03.2024;15:51;78,513;
23.03.2024;15:36;78,513;
23.03.2024;15:21;78,512;
23.03.2024;15:06;78,512;
23.03.2024;14:51;78,511;
23.03.2024;14:36;78,512;
23.03.2024;14:21;78,511;
23.03.2024;14:06;78,511;
23.03.2024;13:51;78,511;
23.03.2024;13:36;78,510;
23.03.2024;13:21;78,511;
23.03.2024;13:06;78,511;
23.03.2024;12:51;78,511;
23.03.2024;12:36;78,511;
23.03.2024;12:21;78,511;
23.03.2024;12:06;78,512;
23.03.2024;11:51;78,512;
23.03.2024;11:36;78,511;
23.03.2024;11:21;78,511;
23.03.2024;11:06;78,512;
23.03.2024;10:51;78,510;
23.03.2024;10:36;78,511;
23.03.2024;10:21;78,511;
23.03.2024;10:06;78,512;
23.03.2024;09:51;78,511;
23.03.2024;09:36;78,513;
23.03.2024;09:21;78,512;
23.03.2024;09:06;78,513;
23.03.2024;08:51;78,513;
23.03.2024;08:36;78,512;
23.03.2024;08:21;78,514;
23.03.2024;08:06;78,512;
23.03.2024;07:51;78,513;
23.03.2024;07:36;78,512;
23.03.2024;07:21;78,512;
23.03.2024;07:06;78,512;
23.03.2024;06:51;78,513;
23.03.2024;06:36;78,512;
23.03.2024;06:21;78,513;
23.03.2024;06:06;78,512;
23.03.2024;05:51;78,512;
23.03.2024;05:36;78,512;
23.03.2024;05:21;78,512;
23.03.2024;05:06;78,512;
23.03.2024;04:51;78,512;
23.03.2024;04:36;78,514;
23.03.2024;04:21;78,514;
23.03.2024;04:06;78,515;
23.03.2024;03:51;78,515;
23.03.2024;03:36;78,515;
23.03.2024;03:21;78,517;
23.03.2024;03:06;78,517;
23.03.2024;02:51;78,517;
23.03.2024;02:36;78,516;
23.03.2024;02:21;78,517;
23.03.2024;02:06;78,518;
23.03.2024;01:51;78,519;
23.03.2024;01:36;78,518;
23.03.2024;01:21;78,519;
23.03.2024;01:06;78,519;
23.03.2024;00:51;78,519;
23.03.2024;00:36;78,520;
23.03.2024;00:21;78,519;
23.03.2024;00:06;78,520;
22.03.2024;23:51;78,519;
22.03.2024;23:36;78,519;
22.03.2024;23:21;78,519;
22.03.2024;23:06;78,518;
22.03.2024;22:51;78,518;
22.03.2024;22:36;78,517;
22.03.2024;22:21;78,516;
22.03.2024;22:06;78,516;
22.03.2024;21:51;78,515;
22.03.2024;21:36;78,515;
22.03.2024;21:21;78,514;
22.03.2024;21:06;78,514;
22.03.2024;20:51;78,514;
22.03.2024;20:36;78,514;
22.03.2024;20:21;78,513;
22.03.2024;20:06;78,513;
22.03.2024;19:51;78,513;
22.03.2024;19:36;78,513;
22.03.2024;19:21;78,514;
22.03.2024;19:06;78,512;
22.03.2024;18:51;78,512;
22.03.2024;18:36;78,512;
22.03.2024;18:21;78,512;
22.03.2024;18:06;78,512;
22.03.2024;17:51;78,512;
22.03.2024;17:36;78,512;
22.03.2024;17:21;78,511;
22.03.2024;17:06;78,511;
22.03.2024;16:51;78,510;
22.03.2024;16:36;78,512;
22.03.2024;16:21;78,510;
22.03.2024;16:06;78,511;
22.03.2024;15:51;78,510;
22.03.2024;15:36;78,510;
22.03.2024;15:21;78,510;
22.03.2024;15:06;78,510;
22.03.2024;14:51;78,511;
22.03.2024;14:36;78,511;
22.03.2024;14:21;78,512;
22.03.2024;14:06;78,512;
22.03.2024;13:51;78,511;
22.03.2024;13:36;78,510;
22.03.2024;13:21;78,511;
22.03.2024;13:06;78,512;
22.03.2024;12:51;78,510;
22.03.2024;12:36;78,511;
22.03.2024;12:21;78,509;
22.03.2024;12:06;78,509;
22.03.2024;11:51;78,510;
22.03.2024;11:36;78,509;
22.03.2024;11:21;78,510;
22.03.2024;11:06;78,510;
22.03.2024;10:51;78,510;
22.03.2024;10:36;78,509;
22.03.2024;10:21;78,511;
22.03.2024;10:06;78,510;
22.03.2024;09:51;78,511;
22.03.2024;09:36;78,510;
22.03.2024;09:21;78,511;
22.03.2024;09:06;78,511;
22.03.2024;08:51;78,511;
22.03.2024;08:36;78,511;
22.03.2024;08:21;78,510;
22.03.2024;08:06;78,511;
22.03.2024;07:51;78,511;
22.03.2024;07:36;78,511;
22.03.2024;07:21;78,510;
22.03.2024;07:06;78,512;
22.03.2024;06:51;78,510;
22.03.2024;06:36;78,511;
22.03.2024;06:21;78,511;
22.03.2024;06:06;78,511;
22.03.2024;05:51;78,511;
22.03.2024;05:36;78,511;
22.03.2024;05:21;78,513;
22.03.2024;05:06;78,512;
22.03.2024;04:51;78,514;
22.03.2024;04:36;78,512;
22.03.2024;04:21;78,514;
22.03.2024;04:06;78,514;
22.03.2024;03:51;78,516;
22.03.2024;03:36;78,515;
22.03.2024;03:21;78,516;
22.03.2024;03:06;78,517;
22.03.2024;02:51;78,517;
22.03.2024;02:36;78,518;
22.03.2024;02:21;78,518;
22.03.2024;02:06;78,518;
22.03.2024;01:51;78,518;
22.03.2024;01:36;78,518;
22.03.2024;01:21;78,518;
22.03.2024;01:06;78,518;
22.03.2024;00:51;78,519;
22.03.2024;00:36;78,518;
22.03.2024;00:21;78,519;
22.03.2024;00:06;78,519;
21.03.2024;23:51;78,518;
21.03.2024;23:36;78,519;
21.03.2024;23:21;78,518;
21.03.2024;23:06;78,519;
21.03.2024;22:51;78,518;
21.03.2024;22:36;78,519;
21.03.2024;22:21;78,518;
21.03.2024;22:06;78,517;
21.03.2024;21:51;78,518;
21.03.2024;21:36;78,517;
21.03.2024;21:21;78,517;
21.03.2024;21:06;78,518;
21.03.2024;20:51;78,517;
21.03.2024;20:36;78,517;
21.03.2024;20:21;78,517;
21.03.2024;20:06;78,517;
21.03.2024;19:51;78,517;
21.03.2024;19:36;78,517;
21.03.2024;19:21;78,516;
21.03.2024;19:06;78,515;
21.03.2024;18:51;78,515;
21.03.2024;18:36;78,515;
21.03.2024;18:21;78,515;
21.03.2024;18:06;78,514;
21.03.2024;17:51;78,515;
21.03.2024;17:36;78,515;
21.03.2024;17:21;78,514;
21.03.2024;17:06;78,514;
21.03.2024;16:51;78,514;
21.03.2024;16:36;78,515;
21.03.2024;16:21;78,514;
21.03.2024;16:06;78,514;
21.03.2024;15:51;78,514;
21.03.2024;15:36;78,514;
21.03.2024;15:21;78,514;
21.03.2024;15:06;78,514;
21.03.2024;14:51;78,514;
21.03.2024;14:36;78,514;
21.03.2024;14:21;78,514;
21.03.2024;14:06;78,514;
21.03.2024;13:51;78,513;
21.03.2024;13:36;78,513;
21.03.2024;13:21;78,514;
21.03.2024;13:06;78,514;
21.03.2024;12:51;78,514;
21.03.2024;12:36;78,514;
21.03.2024;12:21;78,514;
21.03.2024;12:06;78,513;
21.03.2024;11:51;78,514;
21.03.2024;11:36;78,514;
21.03.2024;11:21;78,514;
21.03.2024;11:06;78,514;
21.03.2024;10:51;78,514;
21.03.2024;10:36;78,514;
21.03.2024;10:21;78,514;
21.03.2024;10:06;78,514;
21.03.2024;09:51;78,513;
21.03.2024;09:36;78,514;
21.03.2024;09:21;78,513;
21.03.2024;09:06;78,513;
21.03.2024;08:51;78,513;
21.03.2024;08:36;78,512;
21.03.2024;08:21;78,512;
21.03.2024;08:06;78,513;
21.03.2024;07:51;78,512;
21.03.2024;07:36;78,512;
21.03.2024;07:21;78,512;
21.03.2024;07:06;78,511;
21.03.2024;06:51;78,512;
21.03.2024;06:36;78,512;
21.03.2024;06:21;78,512;
21.03.2024;06:06;78,512;
21.03.2024;05:51;78,512;
21.03.2024;05:36;78,513;
21.03.2024;05:21;78,514;
21.03.2024;05:06;78,514;
21.03.2024;04:51;78,514;
21.03.2024;04:36;78,514;
21.03.2024;04:21;78,515;
21.03.2024;04:06;78,515;
21.03.2024;03:51;78,516;
21.03.2024;03:36;78,517;
21.03.2024;03:21;78,517;
21.03.2024;03:06;78,517;
21.03.2024;02:51;78,517;
21.03.2024;02:36;78,518;
21.03.2024;02:21;78,518;
21.03.2024;02:06;78,518;
21.03.2024;01:51;78,518;
21.03.2024;01:36;78,519;
21.03.2024;01:21;78,519;
21.03.2024;01:06;78,520;
21.03.2024;00:51;78,520;
21.03.2024;00:36;78,520;
21.03.2024;00:21;78,519;
21.03.2024;00:06;78,519;
20.03.2024;23:51;78,519;
20.03.2024;23:36;78,520;
20.03.2024;23:21;78,519;
20.03.2024;23:06;78,519;
20.03.2024;22:51;78,520;
20.03.2024;22:36;78,519;
20.03.2024;22:21;78,520;
20.03.2024;22:06;78,519;
20.03.2024;21:51;78,519;
20.03.2024;21:36;78,519;
20.03.2024;21:21;78,519;
20.03.2024;21:06;78,519;
20.03.2024;20:51;78,518;
20.03.2024;20:36;78,517;
20.03.2024;20:21;78,517;
20.03.2024;20:06;78,517;
20.03.2024;19:51;78,517;
20.03.2024;19:36;78,517;
20.03.2024;19:21;78,516;
20.03.2024;19:06;78,516;
20.03.2024;18:51;78,516;
20.03.2024;18:36;78,516;
20.03.2024;18:21;78,516;
20.03.2024;18:06;78,516;
20.03.2024;17:51;78,515;
20.03.2024;17:36;78,515;
20.03.2024;17:21;78,516;
20.03.2024;17:06;78,516;
20.03.2024;16:51;78,517;
20.03.2024;16:36;78,517;
20.03.2024;16:21;78,517;
20.03.2024;16:06;78,517;
20.03.2024;15:51;78,517;
20.03.2024;15:36;78,518;
20.03.2024;15:21;78,518;
20.03.2024;15:06;78,518;
20.03.2024;14:51;78,518;
20.03.2024;14:36;78,518;
20.03.2024;14:21;78,518;
20.03.2024;14:06;78,518;
20.03.2024;13:51;78,518;
20.03.2024;13:36;78,517;
20.03.2024;13:21;78,517;
20.03.2024;13:06;78,517;
20.03.2024;12:51;78,517;
20.03.2024;12:36;78,517;
20.03.2024;12:21;78,516;
20.03.2024;12:06;78,516;
20.03.2024;11:51;78,516;
20.03.2024;11:36;78,517;
20.03.2024;11:21;78,517;
20.03.2024;11:06;78,517;
20.03.2024;10:51;78,517;
20.03.2024;10:36;78,517;
20.03.2024;10:21;78,517;
20.03.2024;10:06;78,517;
20.03.2024;09:51;78,517;
20.03.2024;09:36;78,517;
20.03.2024;09:21;78,517;
20.03.2024;09:06;78,517;
20.03.2024;08:51;78,517;
20.03.2024;08:36;78,517;
20.03.2024;08:21;78,517;
20.03.2024;08:06;78,517;
20.03.2024;07:51;78,517;
20.03.2024;07:36;78,517;
20.03.2024;07:21;78,517;
20.03.2024;07:06;78,517;
20.03.2024;06:51;78,517;
20.03.2024;06:36;78,517;
20.03.2024;06:21;78,518;
20.03.2024;06:06;78,517;
20.03.2024;05:51;78,517;
20.03.2024;05:36;78,517;
20.03.2024;05:21;78,518;
20.03.2024;05:06;78,517;
20.03.2024;04:51;78,518;
20.03.2024;04:36;78,518;
20.03.2024;04:21;78,518;
20.03.2024;04:06;78,519;
20.03.2024;03:51;78,519;
20.03.2024;03:36;78,520;
20.03.2024;03:21;78,520;
20.03.2024;03:06;78,520;
20.03.2024;02:51;78,520;
20.03.2024;02:36;78,522;
20.03.2024;02:21;78,522;
20.03.2024;02:06;78,522;
20.03.2024;01:51;78,521;
20.03.2024;01:36;78,522;
20.03.2024;01:21;78,522;
20.03.2024;01:06;78,523;
20.03.2024;00:51;78,523;
20.03.2024;00:36;78,523;
20.03.2024;00:21;78,524;
20.03.2024;00:06;78,524;
19.03.2024;23:51;78,523;
19.03.2024;23:36;78,523;
19.03.2024;23:21;78,524;
19.03.2024;23:06;78,524;
19.03.2024;22:51;78,524;
19.03.2024;22:36;78,524;
19.03.2024;22:21;78,524;
19.03.2024;22:06;78,525;
19.03.2024;21:51;78,524;
19.03.2024;21:36;78,525;
19.03.2024;21:21;78,524;
19.03.2024;21:06;78,524;
19.03.2024;20:51;78,524;
19.03.2024;20:36;78,524;
19.03.2024;20:21;78,524;
19.03.2024;20:06;78,523;
19.03.2024;19:51;78,524;
19.03.2024;19:36;78,524;
19.03.2024;19:21;78,523;
19.03.2024;19:06;78,523;
19.03.2024;18:51;78,524;
19.03.2024;18:36;78,523;
19.03.2024;18:21;78,523;
19.03.2024;18:06;78,522;
19.03.2024;17:51;78,522;
19.03.2024;17:36;78,522;
19.03.2024;17:21;78,522;
19.03.2024;17:06;78,522;
19.03.2024;16:51;78,522;
19.03.2024;16:36;78,523;
19.03.2024;16:21;78,522;
19.03.2024;16:06;78,522;
19.03.2024;15:51;78,523;
19.03.2024;15:36;78,523;
19.03.2024;15:21;78,523;
19.03.2024;15:06;78,523;
19.03.2024;14:51;78,524;
19.03.2024;14:36;78,523;
19.03.2024;14:21;78,523;
19.03.2024;14:06;78,522;
19.03.2024;13:51;78,523;
19.03.2024;13:36;78,523;
19.03.2024;13:21;78,523;
19.03.2024;13:06;78,524;
19.03.2024;12:51;78,523;
19.03.2024;12:36;78,524;
19.03.2024;12:21;78,524;
19.03.2024;12:06;78,524;
19.03.2024;11:51;78,524;
19.03.2024;11:36;78,524;
19.03.2024;11:21;78,524;
19.03.2024;11:06;78,524;
19.03.2024;10:51;78,524;
19.03.2024;10:36;78,524;
19.03.2024;10:21;78,523;
19.03.2024;10:06;78,523;
19.03.2024;09:51;78,523;
19.03.2024;09:36;78,524;